Les temps du jogging 2017

Pos Dossard Nom, prénom Ville G. Cat. Chrono Tps/Km Km/h
1 661 GOSSIAUX Renan H SE 00:28:04 04:00 14,96
2 754 ANDRE Jean Eric H SE 00:28:27 04:03 14,76
3 642 PASTEELS Johan H SE 00:28:37 04:05 14,68
4 649 HANNAERT Victor H CA 00:30:24 04:20 13,82
5 630 THURION David H SE 00:30:44 04:23 13,67
6 651 HANNAERT Emile H PO 00:35:51 05:07 11,72
7 621 PIJCKE Charlie H EA 00:36:12 05:10 11,60
8 638 BERNAERTS Charlotte F SE 00:37:09 05:18 11,31
9 615 FORET Marion F JU 00:37:20 05:20 11,25
10 351 PLATTERBORZE Laurent H SE 00:37:53 05:24 11,09
11 609 DEGROOTE Quentin H SE 00:38:10 05:27 11,00
12 660 DETRY Theo H MI 00:38:21 05:28 10,95
13 664 PIREYN Max H MI 00:38:43 05:31 10,85
14 634 WILLEMS Jean-Christophe H V1 00:39:06 05:35 10,74
15 640 VAN CAMP Jerome H SE 00:40:46 05:49 10,30
16 600 BAILLY Maxime H EA 00:41:33 05:56 10,11
17 639 MARTENS Virgil H SE 00:41:44 05:57 10,06
18 628 STOUTEN Julien H CA 00:42:17 06:02 9,93
19 620 LE BOULENGE Julien H SE 00:42:23 06:03 9,91
20 658 FAURE Guillaume H BE 00:43:01 06:08 9,76
21 605 BERLINSKA Joanna F V1 00:43:19 06:11 9,70
22 618 JONCKERS Jean-Pierre H V2 00:44:37 06:22 9,41
23 608 DEFLEM Christophe H V1 00:44:45 06:23 9,39
24 604 RASBERRY Barry H V2 00:44:50 06:24 9,37
25 656 DANLEE Bruno H SE 00:45:08 06:26 9,31
26 654 ARETOI Nicolas H PO 00:45:46 06:32 9,18
27 659 MASSION Youri H BE 00:45:58 06:34 9,14
28 625 REGOUT Bruno H V2 00:46:27 06:38 9,04
29 646 LEBRUM Maxime H ES 00:46:42 06:40 8,99
30 647 RAVET Paul H ES 00:46:43 06:40 8,99
31 613 FINET Sebastien H SE 00:47:05 06:43 8,92
32 601 BAILLY Olivier H V1 00:47:48 06:49 8,79
33 626 ROOSE Isabelle F V1 00:48:19 06:54 8,69
34 606 EDWARDS Tiffany F SE 00:48:33 06:56 8,65
35 648 LAMBOT Sacha H BE 00:48:41 06:57 8,63
36 652 VERSTICHEL Karin F V2 00:48:49 06:58 8,60
37 666 BORGHLEVENS Louis H BE 00:49:02 07:00 8,57
38 632 VAN BELLINGHEN Michel H V1 00:49:04 07:00 8,56
39 624 REGOUT Audrey F V1 00:49:29 07:04 8,49
40 643 COLIN Marie F V1 00:50:38 07:14 8,29
41 602 XXX Ddd H 00:50:53 07:16 8,25
42 650 HANNAERT Olivier H V1 00:51:14 07:19 8,20
43 629 THOUVENIN Annabelle F V1 00:51:39 07:22 8,13
44 653 AVETUS Evangelos H V1 00:52:12 07:27 8,05
45 635 BAILLY Elisa F MI 00:53:17 07:36 7,88
46 655 VELASCO Maite F SE 00:53:26 07:38 7,86
47 614 FOKAN Dominique F V2 00:54:41 07:48 7,68
48 665 GOBYN Jocelyne F SE 00:54:45 07:49 7,67
49 610 DEMUELENAERE Pierre H V2 00:54:47 07:49 7,67
50 657 BOURET Virginie F V2 00:54:50 07:50 7,66
51 616 GOETHALS Sylvie F V2 00:55:36 07:56 7,55
52 611 DEPREZ Celine F 00:55:52 07:58 7,52
53 645 LEQUEUX Anne-Cecile F 00:56:03 08:00 7,49
54 636 BELANGE Emma F BE 00:56:08 08:01 7,48
55 637 MELCKENBEECK Lilou F BE 00:56:11 08:01 7,48
56 607 DE DUVE Laetitia F V1 00:56:59 08:08 7,37
57 662 BRASSEUR Anne-Catherine F SE 00:57:00 08:08 7,37
58 663 PIREYN Lilly F CA 00:57:50 08:15 7,26
59 612 DEVOS Albert H V2 00:57:56 08:16 7,25
60 644 WAUTHIER Chantal F V3 00:58:02 08:17 7,24
61 627 SOMVILLE Aimie F MI 00:58:53 08:24 7,13
62 641 BAILLY Frederic H SE 01:37:15 13:53 4,32
63 617 HANON Maguy F V2 n.c.
64 631 THURION Thierry H SE n.c.
65 633 WEHBE Tony H SE n.c.

 

Jogging de Sart Messire Guillaume
09 Septembre 2017

www.TrailManager.be

Pos Dossard Nom, prénom Ville G. Cat. Chrono Tps/Km Km/h
1 884 THONNART Julien H SE 00:50:48 04:00 15,00
2 863 WEITKUNAT Baptiste H ES 00:51:25 04:02 14,82
3 819 OLDENHOVE Xavier H V1 00:51:47 04:04 14,72
4 858 CHAMPENOIS Olivier H SE 00:52:07 04:06 14,62
5 769 DE CROMBRUGGHE Antoine H SE 00:54:23 04:16 14,01
6 860 NEIRYNCK Matthieu H SE 00:55:27 04:21 13,74
7 886 DANKIN Gilles H SE 00:55:41 04:23 13,68
8 847 PIRON Cedric H V1 00:56:55 04:28 13,39
9 803 JAUMAIN Bernard H V1 00:57:18 04:30 13,30
10 848 WILLAME Thomas H SE 00:57:23 04:31 13,28
11 781 DESCAMPS Luc H V1 00:58:07 04:34 13,11
12 854 LANDELOOS Julien H SE 00:58:23 04:35 13,05
13 757 LEFEVRE Lionel H SE 00:58:58 04:38 12,92
14 758 DELHAISE Jean-Martin H SE 00:59:02 04:38 12,91
15 853 BELANGE Laurent H V1 00:59:59 04:43 12,70
16 872 LAUREYS Pierre H V2 01:00:17 04:44 12,64
17 829 STORM Jean-Paul H V2 01:00:52 04:47 12,52
18 793 GASPARI Alexandre H V1 01:00:53 04:47 12,52
19 809 ALLART David H V1 01:01:26 04:50 12,40
20 784 DEVRESSE R. H SE 01:02:15 04:54 12,24
21 878 ANDRE Olivier H V2 01:03:15 04:58 12,05
22 777 DELEPINE Luc H V2 01:03:19 04:59 12,03
23 767 DAUTREBANDE Gilles H V2 01:03:49 05:01 11,94
24 852 GENELLE Jean H JU 01:03:52 05:01 11,93
25 759 ROLAND Romain H SE 01:04:27 05:04 11,82
26 833 VAN LANCKER Laurent H V1 01:04:28 05:04 11,82
27 772 DE WILDE Matthias H SE 01:04:35 05:05 11,80
28 804 JESSON MACDUFF Ginger F SE 01:04:40 05:05 11,78
29 883 DE VLEES Christophe H 01:04:48 05:06 11,76
30 821 PIERENNE Antoine H SE 01:05:08 05:07 11,70
31 765 COURTIN Bruno H V1 01:05:27 05:09 11,64
32 877 JOHNSON Mirja F V1 01:05:31 05:09 11,63
33 783 DETILLEUX Valery H SE 01:05:51 05:11 11,57
34 890 MERCENIER Benoit H V1 01:06:09 05:12 11,52
35 867 CARLUCCI Alfonso H SE 01:06:33 05:14 11,45
36 836 VERRUE Remy H SE 01:06:42 05:15 11,42
37 768 DE BRUYN Nicolas H SE 01:06:47 05:15 11,41
38 798 GRIMBERGHS Damien H SE 01:07:04 05:16 11,36
39 861 BAILLEUX Tamara F SE 01:07:11 05:17 11,34
40 889 NETENS Yves H V2 01:07:12 05:17 11,34
41 751 GENETTE Patrick H V2 01:07:20 05:18 11,32
42 762 COOLS Chriss H V1 01:07:25 05:18 11,30
43 882 VERBEEK Jean-Luc H V3 01:07:57 05:21 11,21
44 866 DELSART Jean-Baptiste H 01:08:49 05:25 11,07
45 755 HUBLET Guillaume H SE 01:09:10 05:26 11,02
46 785 DEWAEGENAERE Laurence F V1 01:09:14 05:27 11,01
47 873 SCOUPPE Gery H V2 01:09:24 05:27 10,98
48 756 SOUSSI Farid H 01:09:42 05:29 10,93
49 817 MONARD Tanguy H SE 01:09:57 05:30 10,89
50 850 BARIAUX Eric H V1 01:11:09 05:36 10,71
51 838 WILMET Thomas H V1 01:11:19 05:36 10,68
52 885 SALMON Arnaud H SE 01:11:30 05:37 10,66
53 813 LOOSFELT Sarah F SE 01:12:55 05:44 10,45
54 796 GILLET Christian H V2 01:12:56 05:44 10,45
55 825 CHAUVIN Sarah F SE 01:12:57 05:44 10,45
56 862 AUTTELET David H V1 01:12:58 05:44 10,44
57 876 NELIS Benoit H V1 01:13:41 05:48 10,34
58 775 DECLEVE Antoine H SE 01:13:42 05:48 10,34
59 881 COPPENS Anne-Sophie F V1 01:13:54 05:49 10,31
60 845 COOLS Christian H EA 01:14:28 05:51 10,23
61 844 DONCHUS Amaury H SE 01:14:36 05:52 10,21
62 849 GRAYE Jacques H V2 01:14:53 05:53 10,18
63 843 VANDAN Vincent H V1 01:14:56 05:54 10,17
64 816 MILLET Emilie F SE 01:15:17 05:55 10,12
65 842 CARTIAUX Olivier H SE 01:15:22 05:56 10,11
66 807 LALOUX Virginie F SE 01:15:29 05:56 10,09
67 786 CAUSTEUR Verner H V1 01:16:23 06:00 9,98
68 880 BALLE Marianne F V1 01:17:01 06:03 9,89
69 864 DUCHENE Nicolas H SE 01:17:12 06:04 9,87
70 830 TAFFIN Ludovic H SE 01:17:21 06:05 9,85
71 871 JAQUES Yves H V2 01:17:42 06:07 9,81
72 822 PIRQUET John H SE 01:18:37 06:11 9,69
73 865 VANDEWINKEL Allan H V3 01:18:51 06:12 9,66
74 789 FIEVET Amandine F SE 01:19:00 06:13 9,65
75 868 PIERREUX Stephane H V1 01:19:19 06:14 9,61
76 790 FORET David H V1 01:19:31 06:15 9,58
77 752 VANHAEREN Annick F V1 01:19:34 06:15 9,58
78 771 DE REUCK Fanny F V1 01:19:38 06:16 9,57
79 773 DEBRULLE Anne F V1 01:20:31 06:20 9,46
80 818 NAVET Laurence F V1 01:20:33 06:20 9,46
81 855 BANNER Carol F V2 01:20:39 06:21 9,45
82 839 ZECH Jean-Francois H 01:21:39 06:25 9,33
83 800 HENDRICK Olivier H V1 01:21:40 06:25 9,33
84 753 DORY Nicolas H V1 01:21:49 06:26 9,31
85 794 GASPARI Virginie F SE 01:22:48 06:31 9,20
86 888 MATHIEU Yanouk F SE 01:23:33 06:34 9,12
87 760 CHRISTOPH Marc H V1 01:24:04 06:37 9,06
88 869 FERRACIN Thierry H V1 01:24:28 06:39 9,02
89 846 SERRE Heidi H V2 01:24:38 06:39 9,00
90 603 HUBLET Batiste H ES 01:24:42 06:40 9,00
91 770 DE CUYPER Gaelle F V1 01:24:47 06:40 8,99
92 766 DANCOT Sophie F SE 01:26:45 06:49 8,78
93 887 BRUNO Giulia F SE 01:27:11 06:51 8,74
94 787 DUMONT Noemie F SE 01:28:23 06:57 8,62
95 814 MACAUX Mathilde F SE 01:28:34 06:58 8,60
96 820 ORBAN Mailys F SE 01:28:59 07:00 8,56
97 779 DEMARET Nathalie F SE 01:29:09 07:01 8,55
98 801 HENNUY Odile F V1 01:29:18 07:01 8,53
99 875 COSTER Denis H SE 01:29:43 07:03 8,49
100 874 COSTER Carine F SE 01:29:45 07:04 8,49
101 879 WOUTERS Stephanie F V1 01:31:56 07:14 8,29
102 810 LOICQ Nathalie F V1 01:32:22 07:16 8,25
103 857 FRENY Anne F V2 01:32:59 07:19 8,20
104 802 HOET Bernadette F V2 01:33:00 07:19 8,19
105 778 BAILLY Laurence F V1 01:33:01 07:19 8,19
106 799 HAYEZ Cecile F V1 01:33:05 07:19 8,19
107 824 PLANTIN-CARRENARD Pascale F V1 01:33:06 07:19 8,18
108 870 GILOT Marie F V1 01:33:07 07:19 8,18
109 780 DEMOULIN Stephanie F V1 01:33:53 07:23 8,12
110 791 FRANCIS Line F V1 01:35:10 07:29 8,01
111 826 SOMVILLE Olivier H V1 01:35:12 07:29 8,00
112 841 CAPELLE Veronique F V1 01:35:20 07:30 7,99
113 840 DEHONTSCHUTTER Xavier H V1 01:35:22 07:30 7,99
114 806 LAGRANGE Isabelle F V1 01:35:33 07:31 7,97
115 835 VANSOYE Bruno H V3 01:37:04 07:38 7,85
116 851 GEVELLE Frank H V2 01:41:21 07:58 7,52
117 774 DECKERS Luc H V1 01:41:56 08:01 7,48
118 795 CAVALIER Sibylle F V1 01:42:11 08:02 7,46
119 856 BURNY M H V3 01:42:13 08:02 7,45
120 859 DEBLONDER Bruno H V2 n.c.
121 776 DEKETELAERE Thibault H V1 n.c.
122 788 DYKMANS Yves H V2 n.c.
123 812 LOMONACO Sophia F V1 n.c.
124 828 SPINEUX Pierrette F SE n.c.
125 837 VILLERS Valentine F SE n.c.
AdrienLes temps du jogging 2017